Powrót do katalogu

COSMOS 917 DEB

AktywnyHEO
NORAD 35505·DEBRIS·🇷🇺 Russia

Wystrzelony Jun 16, 1977 z Plesetsk Cosmodrome

Loading…

Następne Przeloty (najbliższe 24 godziny)

TLE

ŚwieżeSource: Space-Track

Epoka: Sep 14, 2026, 03:39 UTC

1 35505U 77047S   26257.15211072  .00000432  00000-0  10802-2 0  9996
2 35505  59.9327 203.7101 7455310  66.5771 351.9866  2.01810819147691

Śledź COSMOS 917 DEB w czasie rzeczywistym z AllMySat

Download on the App Store